TimeCST,TemperatureF,Dew PointF,Humidity,Sea Level PressureIn,VisibilityMPH,Wind Direction,Wind SpeedMPH,Gust SpeedMPH,PrecipitationIn,Events,Conditions,WindDirDegrees,DateUTC
12:15 AM,42.8,30.2,61,30.23,10.0,NE,9.2,-,N/A,,Overcast,50,2013-01-24 06:15:00
12:55 AM,42.8,26.6,53,30.24,10.0,NE,9.2,-,N/A,,Scattered Clouds,50,2013-01-24 06:55:00
1:15 AM,42.8,26.6,53,30.24,10.0,NE,10.4,-,N/A,,Mostly Cloudy,50,2013-01-24 07:15:00
1:35 AM,42.8,26.6,53,30.25,10.0,NE,10.4,-,N/A,,Overcast,40,2013-01-24 07:35:00
1:56 AM,42.8,24.8,49,30.26,10.0,NE,10.4,-,N/A,,Overcast,40,2013-01-24 07:56:00
2:15 AM,42.8,24.8,49,30.25,10.0,ENE,11.5,16.1,N/A,,Overcast,60,2013-01-24 08:15:00
2:35 AM,41.0,24.8,53,30.25,10.0,ENE,9.2,-,N/A,,Overcast,60,2013-01-24 08:35:00
3:35 AM,41.0,23.0,49,30.26,10.0,ENE,10.4,-,N/A,,Overcast,60,2013-01-24 09:35:00
3:55 AM,39.2,23.0,52,30.26,10.0,ENE,9.2,-,N/A,,Overcast,70,2013-01-24 09:55:00
4:15 AM,39.2,21.2,49,30.26,10.0,ENE,11.5,-,N/A,,Overcast,60,2013-01-24 10:15:00
4:36 AM,39.2,21.2,49,30.25,10.0,ENE,13.8,-,N/A,,Overcast,60,2013-01-24 10:36:00
4:55 AM,39.2,21.2,49,30.26,10.0,ENE,11.5,-,N/A,,Overcast,60,2013-01-24 10:55:00
5:15 AM,39.2,21.2,49,30.26,10.0,ENE,15.0,18.4,N/A,,Overcast,70,2013-01-24 11:15:00
5:55 AM,37.4,21.2,52,30.26,10.0,East,16.1,20.7,N/A,,Overcast,80,2013-01-24 11:55:00
6:15 AM,37.4,19.4,48,30.26,10.0,East,15.0,20.7,N/A,,Overcast,80,2013-01-24 12:15:00
6:55 AM,37.4,19.4,48,30.27,10.0,ENE,15.0,23.0,N/A,,Overcast,70,2013-01-24 12:55:00
7:15 AM,37.4,19.4,48,30.27,10.0,East,11.5,-,N/A,,Overcast,80,2013-01-24 13:15:00
7:35 AM,37.4,19.4,48,30.28,10.0,East,12.7,-,N/A,,Overcast,80,2013-01-24 13:35:00
7:56 AM,37.4,17.6,45,30.27,10.0,East,13.8,20.7,N/A,,Overcast,80,2013-01-24 13:56:00
8:15 AM,37.4,17.6,45,30.27,10.0,East,13.8,19.6,N/A,,Overcast,80,2013-01-24 14:15:00
8:35 AM,35.6,15.8,44,30.27,10.0,East,16.1,-,N/A,,Overcast,90,2013-01-24 14:35:00
8:55 AM,35.6,17.6,48,30.28,10.0,East,13.8,19.6,N/A,,Overcast,80,2013-01-24 14:55:00
9:15 AM,37.4,17.6,45,30.29,10.0,East,13.8,17.3,N/A,,Overcast,80,2013-01-24 15:15:00
9:35 AM,37.4,17.6,45,30.29,10.0,East,16.1,-,N/A,,Overcast,80,2013-01-24 15:35:00
9:55 AM,35.6,17.6,48,30.29,10.0,East,11.5,23.0,N/A,,Overcast,80,2013-01-24 15:55:00
10:35 AM,37.4,17.6,45,30.29,10.0,East,15.0,20.7,N/A,,Overcast,100,2013-01-24 16:35:00
10:55 AM,37.4,17.6,45,30.28,10.0,East,13.8,17.3,N/A,,Overcast,90,2013-01-24 16:55:00
11:15 AM,37.4,17.6,45,30.27,10.0,ESE,12.7,-,N/A,,Overcast,110,2013-01-24 17:15:00
11:35 AM,37.4,17.6,45,30.27,10.0,East,12.7,18.4,N/A,,Overcast,90,2013-01-24 17:35:00
11:55 AM,37.4,17.6,45,30.26,10.0,East,12.7,-,N/A,,Overcast,80,2013-01-24 17:55:00
12:15 PM,37.4,17.6,45,30.25,10.0,East,12.7,-,N/A,,Overcast,80,2013-01-24 18:15:00
12:55 PM,39.2,15.8,39,30.23,10.0,East,12.7,-,N/A,,Overcast,80,2013-01-24 18:55:00
1:15 PM,37.4,15.8,41,30.23,10.0,ENE,11.5,-,N/A,,Overcast,70,2013-01-24 19:15:00
1:35 PM,37.4,14.0,38,30.22,10.0,East,13.8,-,N/A,,Overcast,80,2013-01-24 19:35:00
1:56 PM,37.4,15.8,41,30.20,10.0,East,15.0,19.6,N/A,,Overcast,80,2013-01-24 19:56:00
2:15 PM,37.4,14.0,38,30.19,10.0,East,16.1,20.7,N/A,,Overcast,80,2013-01-24 20:15:00
2:35 PM,37.4,15.8,41,30.18,10.0,East,13.8,-,N/A,,Overcast,80,2013-01-24 20:35:00
3:15 PM,39.2,15.8,39,30.17,10.0,East,12.7,-,N/A,,Overcast,90,2013-01-24 21:15:00
3:35 PM,39.2,17.6,42,30.17,10.0,East,8.1,-,N/A,,Overcast,90,2013-01-24 21:35:00
3:55 PM,39.2,17.6,42,30.16,10.0,East,10.4,-,N/A,,Overcast,80,2013-01-24 21:55:00
4:16 PM,39.2,17.6,42,30.15,10.0,East,10.4,-,N/A,,Overcast,80,2013-01-24 22:16:00
4:35 PM,39.2,19.4,45,30.15,10.0,East,9.2,-,N/A,,Overcast,80,2013-01-24 22:35:00
4:55 PM,37.4,19.4,48,30.14,10.0,East,8.1,-,N/A,,Overcast,80,2013-01-24 22:55:00
5:15 PM,39.2,19.4,45,30.13,10.0,East,5.8,-,N/A,,Overcast,100,2013-01-24 23:15:00
5:36 PM,39.2,21.2,49,30.12,10.0,SE,11.5,-,N/A,,Overcast,130,2013-01-24 23:36:00
5:55 PM,39.2,21.2,49,30.13,10.0,SE,9.2,-,N/A,,Overcast,130,2013-01-24 23:55:00
6:15 PM,39.2,21.2,49,30.11,10.0,ESE,10.4,-,N/A,,Overcast,120,2013-01-25 00:15:00
6:55 PM,39.2,21.2,49,30.11,10.0,ESE,10.4,-,N/A,,Overcast,110,2013-01-25 00:55:00
7:35 PM,39.2,21.2,49,30.09,10.0,ESE,8.1,-,N/A,,Overcast,110,2013-01-25 01:35:00
7:56 PM,39.2,21.2,49,30.10,10.0,ESE,9.2,-,N/A,,Overcast,120,2013-01-25 01:56:00
8:15 PM,39.2,23.0,52,30.11,10.0,ESE,8.1,-,N/A,,Overcast,110,2013-01-25 02:15:00
8:35 PM,39.2,24.8,56,30.11,10.0,ESE,9.2,-,N/A,,Overcast,120,2013-01-25 02:35:00
9:15 PM,37.4,21.2,52,30.13,10.0,ENE,6.9,-,N/A,,Overcast,70,2013-01-25 03:15:00
9:35 PM,35.6,19.4,52,30.12,10.0,East,8.1,-,N/A,,Overcast,90,2013-01-25 03:35:00
10:15 PM,35.6,19.4,52,30.11,10.0,ENE,6.9,-,N/A,,Overcast,70,2013-01-25 04:15:00
10:35 PM,35.6,19.4,52,30.11,10.0,East,6.9,-,N/A,,Overcast,80,2013-01-25 04:35:00
10:55 PM,35.6,19.4,52,30.11,10.0,East,5.8,-,N/A,,Overcast,90,2013-01-25 04:55:00
11:35 PM,33.8,24.8,70,30.13,10.0,East,4.6,-,N/A,,Overcast,90,2013-01-25 05:35:00
11:55 PM,33.8,28.4,81,30.12,5.0,ESE,5.8,-,N/A,,Overcast,120,2013-01-25 05:55:00